Temperature
17 21 19 18 17 17 18 18 18 17 13 12 13 14 14 10 8 8 9 8 7 6 5 2 2 1 1 1 1 0 -1 -1 -1 -2 -2 -3 -3 -4 -5 -6 -7 -8 -9 -9
20 18 16 15 15 16 17 18 18 16 12 12 13 14 14 13 9 9 9 8 7 6 4 2 2 1 1 1 1 -0 -1 -2 -2 -2 -3 -3 -4 -5 -7 -8 -8 -9 -9 -10
20 16 14 15 16 17 17 17 17 16 13 12 12 17 14 11 8 8 8 8 8 6 5 3 2 1 1 1 0 -0 -1 -2 -2 -3 -3 -4 -5 -6 -7 -8 -8 -9 -10 -11
17 15 15 16 16 16 18 15 14 14 15 16 14 18 18 13 11 9 8 7 7 6 5 3 2 1 1 1 0 -1 -1 -2 -3 -3 -4 -5 -6 -7 -7 -8 -9 -10 -11 -11
16 15 15 16 15 14 15 13 13 13 14 15 14 17 20 13 15 14 11 9 7 6 4 3 2 1 1 1 -0 -1 -2 -2 -3 -3 -4 -5 -6 -7 -7 -9 -10 -11 -11 -11
15 13 14 14 13 13 13 13 13 13 15 18 16 16 19 18 17 15 12 9 7 5 3 2 1 2 1 1 -0 -1 -2 -2 -3 -4 -4 -5 -6 -7 -8 -9 -11 -11 -11 -11
16 15 13 12 15 14 15 17 19 19 19 19 14 15 18 17 15 13 12 9 7 4 2 1 1 2 1 0 -1 -1 -2 -2 -3 -4 -5 -6 -7 -7 -9 -10 -11 -12 -12 -11
19 18 15 14 15 16 15 17 18 18 18 18 14 16 19 15 11 9 8 7 5 3 2 1 2 1 1 -0 -1 -1 -2 -3 -3 -4 -5 -6 -7 -8 -9 -10 -11 -12 -12 -12
19 18 13 12 12 14 16 16 14 16 16 15 18 17 18 13 11 9 8 6 5 3 2 1 1 1 1 -0 -1 -1 -2 -3 -4 -4 -5 -6 -7 -8 -9 -10 -11 -12 -12 -12
17 17 14 12 12 11 13 14 15 16 16 17 18 18 18 19 18 14 10 8 5 3 1 1 1 1 1 -0 -1 -1 -2 -3 -4 -5 -6 -6 -7 -8 -9 -10 -11 -11 -12 -12
14 17 15 13 14 15 13 13 14 15 15 16 17 19 18 18 17 15 13 10 6 4 2 2 2 1 0 -0 -1 -2 -3 -4 -4 -5 -6 -6 -7 -8 -9 -10 -11 -11 -12 -12
13 16 18 15 12 11 14 15 15 16 16 14 15 17 18 16 14 12 11 9 6 4 2 2 2 1 0 -0 -1 -2 -3 -4 -4 -5 -5 -6 -7 -8 -9 -10 -11 -11 -12 -12
11 15 18 17 14 11 12 12 13 14 14 14 14 18 17 13 12 10 9 8 6 4 2 2 2 1 0 -1 -1 -2 -3 -4 -4 -5 -6 -6 -7 -8 -9 -10 -10 -11 -11 -12
10 14 17 19 19 16 13 12 11 13 14 14 14 17 19 17 16 14 10 7 5 3 2 2 2 1 0 -1 -2 -2 -3 -4 -4 -5 -6 -6 -7 -8 -9 -9 -10 -11 -11 -12
10 13 14 14 12 12 13 13 10 12 14 15 17 15 16 18 17 14 10 7 4 2 2 2 2 1 -0 -1 -2 -2 -3 -3 -4 -5 -6 -6 -7 -8 -8 -9 -10 -10 -11 -11
9 11 12 12 11 10 10 11 11 11 12 13 13 14 16 15 13 10 8 6 4 3 3 3 2 1 0 -1 -2 -2 -3 -3 -4 -5 -6 -6 -7 -8 -8 -9 -9 -10 -10 -11
9 11 12 15 12 11 14 14 10 10 11 12 13 15 16 13 11 10 9 7 7 5 4 4 3 1 0 -1 -2 -2 -3 -3 -4 -5 -6 -6 -7 -8 -8 -9 -9 -9 -10 -10
9 11 12 13 14 14 19 12 12 11 11 11 12 14 14 13 11 9 9 8 8 6 5 4 3 1 0 -1 -2 -2 -3 -3 -4 -5 -6 -6 -7 -7 -8 -8 -9 -9 -9 -10
8 11 12 11 13 16 17 11 10 10 13 14 12 13 13 10 7 11 13 12 9 8 6 5 3 1 0 -1 -2 -2 -2 -3 -4 -5 -5 -6 -7 -7 -8 -8 -9 -9 -9 -10
6 8 11 9 12 15 18 12 9 12 14 15 12 13 12 6 12 15 12 11 10 7 5 4 2 1 0 -1 -2 -2 -2 -3 -4 -5 -5 -6 -7 -7 -8 -8 -9 -9 -9 -9
7 8 9 9 10 14 15 8 10 15 18 18 15 14 12 9 13 13 11 10 9 7 5 3 2 1 0 -1 -1 -2 -2 -3 -4 -4 -5 -6 -6 -7 -7 -8 -8 -9 -9 -9
10 9 8 9 10 13 10 9 13 18 18 17 17 16 15 14 14 12 11 9 8 7 5 3 2 1 -0 -1 -1 -2 -2 -3 -4 -4 -5 -6 -6 -7 -7 -8 -8 -8 -9 -9
11 12 12 11 14 14 10 13 15 15 17 17 17 16 15 14 13 12 11 9 8 7 5 3 2 1 -0 -1 -1 -2 -2 -3 -3 -4 -5 -6 -6 -6 -7 -7 -7 -8 -8 -8
10 8 10 9 11 12 11 14 16 16 16 17 17 16 15 14 14 12 11 9 8 6 5 3 2 1 0 -0 -1 -2 -2 -3 -3 -4 -5 -5 -6 -6 -6 -6 -7 -7 -7 -8
13 8 9 10 12 12 13 17 19 19 18 18 18 17 16 15 14 13 11 10 8 7 5 4 2 2 1 -0 -1 -2 -2 -3 -3 -4 -4 -5 -5 -5 -5 -6 -6 -6 -7 -8
9 9 10 15 15 14 17 19 19 18 18 18 17 17 16 16 15 14 12 10 8 7 6 4 3 2 1 -0 -1 -2 -2 -3 -3 -4 -4 -5 -5 -5 -5 -5 -5 -6 -6 -6
Wind_Speed
4 3 4 4 3 2 1 3 5 2 3 6 13 16 13 13 17 18 17 17 17 16 13 12 11 8 5 2 2 5 7 9 9 8 8 9 10 9 10 11 15 16 17 18
3 4 3 1 1 2 2 4 5 2 1 5 12 17 13 12 17 18 18 18 18 16 14 14 12 9 6 2 2 5 7 8 9 8 9 9 10 9 10 11 13 15 17 17
4 4 2 2 2 2 3 4 5 6 2 4 9 7 3 3 8 14 16 17 17 17 16 15 14 10 6 2 2 4 6 7 8 10 9 9 8 8 8 10 11 15 17 17
6 2 2 2 1 2 2 1 4 5 6 3 4 5 1 2 5 10 15 17 17 16 15 15 13 10 6 3 0 3 5 6 8 9 9 11 10 10 12 10 11 16 16 16
4 2 2 2 1 1 2 1 3 3 3 4 1 5 3 1 3 5 10 14 15 15 15 15 13 10 6 3 1 2 4 5 7 9 10 11 10 9 10 11 13 13 15 15
4 2 1 1 1 0 1 2 3 3 3 3 1 4 5 2 2 2 2 7 12 13 13 14 12 9 6 4 2 2 4 5 7 9 10 10 11 12 13 13 13 12 12 14
3 3 1 1 2 2 2 4 4 3 3 3 1 5 7 2 4 6 7 5 8 12 14 14 13 10 7 5 2 2 4 5 7 9 9 10 11 12 13 13 13 13 12 12
4 4 3 1 1 0 1 3 4 5 6 6 2 6 6 2 4 6 7 6 7 13 14 14 13 10 7 5 3 2 3 5 7 8 9 9 10 9 9 12 12 12 11 13
4 3 2 1 1 1 2 2 2 3 3 6 6 6 8 4 8 9 9 7 9 13 15 14 12 10 7 5 3 1 3 5 7 8 9 9 10 10 11 12 12 11 13 15
3 3 4 3 3 3 3 4 3 2 4 6 9 7 5 6 6 6 10 12 12 14 15 14 12 10 8 5 3 1 2 4 6 7 7 7 9 11 11 11 12 12 14 16
2 4 4 4 6 5 5 4 3 2 3 4 6 7 5 9 8 8 9 9 12 16 16 15 12 10 8 6 4 2 2 4 6 6 7 8 9 10 11 10 11 13 14 15
3 3 4 3 2 2 4 5 6 4 4 4 5 8 4 8 8 9 10 8 11 15 15 14 12 10 8 7 5 3 2 4 5 6 7 8 9 10 10 11 11 13 13 14
4 4 4 3 4 4 5 6 7 3 3 6 5 9 2 5 8 10 11 9 10 14 15 14 12 11 9 8 6 4 3 4 5 6 7 8 9 10 11 11 11 12 13 13
3 5 8 5 1 6 7 9 10 9 7 7 12 17 17 14 12 11 11 11 11 14 16 15 13 11 10 8 7 5 4 4 4 5 6 7 9 10 11 11 11 11 12 12
3 6 6 8 4 4 8 11 15 16 14 12 13 13 20 19 16 12 8 9 12 15 17 17 15 12 11 10 8 6 4 4 4 5 6 7 8 10 10 10 11 11 11 12
5 5 3 5 4 6 9 16 19 18 15 18 21 21 23 20 12 9 9 10 14 17 18 17 15 13 12 11 9 7 5 4 4 5 6 7 8 9 10 10 11 11 12 12
7 6 4 4 2 5 12 14 19 11 14 14 16 15 11 7 10 11 10 13 16 17 18 18 16 14 13 11 10 8 6 5 5 5 6 6 7 9 10 10 11 11 11 12
7 5 3 4 3 9 6 3 13 12 12 18 18 16 15 13 10 10 12 13 15 16 17 17 15 14 12 11 10 8 6 6 5 6 6 6 7 9 10 11 11 11 11 11
4 4 4 3 5 10 6 6 9 10 10 15 21 21 18 3 7 10 12 15 14 16 16 16 15 14 13 12 11 9 8 7 6 7 6 6 7 9 10 11 11 11 11 12
2 3 4 4 5 9 5 5 7 5 7 8 15 18 11 3 7 8 4 10 12 12 13 13 14 14 13 12 11 10 9 8 8 7 7 7 7 9 10 12 12 11 11 12
5 6 8 9 9 11 2 7 9 6 5 4 11 12 10 11 10 1 5 9 12 13 14 14 15 14 13 13 12 11 9 9 7 6 7 7 8 9 10 11 11 11 11 12
12 10 11 9 9 12 8 12 11 8 1 3 7 9 11 14 9 5 7 10 13 15 15 16 15 13 12 13 13 11 11 8 7 6 7 8 8 8 8 11 11 11 11 11
13 12 9 13 11 4 13 12 9 4 5 6 6 9 11 12 12 10 10 12 14 16 16 16 15 14 13 13 13 12 10 8 8 7 7 8 8 8 8 9 11 10 9 9
10 6 7 10 15 12 13 17 15 13 14 15 12 10 10 14 13 13 12 13 15 17 17 16 16 15 14 14 14 12 9 9 8 7 7 7 7 8 8 7 8 8 8 9
10 11 8 12 11 10 14 19 23 20 20 20 19 16 16 15 15 15 14 16 16 17 17 17 17 16 16 15 14 13 11 10 9 7 6 6 6 7 7 7 7 8 8 9
9 12 12 15 10 11 11 6 9 14 18 18 17 16 16 17 17 15 15 15 17 18 18 18 18 17 16 15 15 14 13 12 10 7 6 5 5 5 5 6 7 7 8 11
Wind_Direction
22 86 81 71 32 22 310 279 294 314 151 234 256 265 256 211 211 221 222 220 221 222 214 197 192 189 195 217 333 344 344 347 346 343 340 337 334 331 331 332 333 333 333 332
123 83 62 54 149 188 238 282 296 278 175 259 291 284 270 231 218 223 228 227 226 223 209 198 194 194 203 227 326 336 344 344 348 344 334 328 323 320 322 328 332 333 332 330
92 94 97 148 148 240 258 284 307 310 302 238 301 289 184 194 227 232 236 237 232 224 213 199 195 196 200 218 326 338 338 338 345 343 335 330 325 324 333 336 333 332 328 325
95 110 155 156 122 317 298 324 292 292 296 309 339 317 151 185 240 234 232 231 231 223 215 200 193 192 193 187 266 324 330 337 348 347 341 338 333 332 335 333 327 326 325 323
117 120 160 192 143 291 331 342 272 262 271 281 253 294 296 141 262 240 233 230 227 218 207 193 186 181 172 169 219 316 323 339 351 348 341 335 331 330 329 329 327 327 325 324
102 111 44 99 134 219 212 203 177 201 242 277 84 301 291 197 238 259 241 235 222 210 196 183 173 166 169 175 209 299 320 346 352 345 338 335 333 332 330 331 329 329 326 326
147 156 126 181 192 169 242 301 311 306 304 337 97 269 265 280 253 262 267 261 219 198 186 177 174 177 183 191 212 278 326 350 349 340 335 333 331 330 329 330 328 328 326 327
198 186 162 180 284 325 59 330 352 320 316 316 242 261 274 244 251 257 261 261 212 193 188 184 181 182 185 188 208 270 343 349 341 332 331 327 329 328 324 325 324 323 322 323
216 178 116 79 56 278 161 128 18 273 282 283 275 272 288 223 252 244 242 234 211 195 190 186 181 182 184 186 199 271 347 339 330 324 324 324 330 328 323 322 321 322 322 322
240 195 164 143 143 56 3 142 166 236 300 296 291 278 267 280 279 239 235 231 216 197 191 187 183 184 183 182 191 208 334 324 318 316 321 321 325 325 322 320 323 323 323 324
232 221 170 192 210 197 161 164 178 183 252 272 297 290 211 261 282 272 262 237 212 197 192 188 184 182 179 183 193 204 289 306 309 314 317 321 324 323 321 320 323 325 325 327
200 237 220 192 117 348 227 207 192 226 221 226 264 273 219 243 260 258 262 250 214 198 191 186 182 180 185 193 196 204 255 289 304 309 313 318 321 322 321 322 324 326 327 329
178 215 221 195 188 199 214 204 200 198 209 216 236 264 181 236 252 251 254 248 210 192 187 185 184 187 192 196 197 203 237 275 295 301 308 315 321 322 321 322 324 327 328 328
199 240 243 260 211 174 198 195 189 187 211 226 233 262 281 282 281 276 258 240 208 192 189 189 190 191 193 196 197 202 228 260 283 294 303 313 321 321 319 319 322 327 328 328
201 251 252 269 264 233 236 214 196 209 222 236 252 257 272 285 298 296 275 225 200 195 194 195 195 191 191 193 194 200 221 245 268 285 298 310 316 317 314 315 319 324 326 326
204 240 256 269 243 230 255 239 220 225 234 244 259 270 268 277 281 264 245 214 204 202 199 198 196 191 191 192 191 196 213 230 254 272 286 299 308 309 309 310 316 320 323 324
188 204 223 258 185 281 265 233 201 205 214 213 229 244 259 256 253 257 246 217 214 206 199 197 195 192 189 187 185 193 204 216 240 260 275 290 300 304 307 309 313 317 319 320
181 193 234 274 261 244 252 129 183 206 229 219 236 255 263 269 287 274 250 230 218 205 198 195 191 185 180 175 178 186 195 214 235 253 266 279 291 297 304 308 312 315 316 316
221 207 227 239 251 270 263 187 178 200 256 223 229 249 263 312 307 275 232 221 216 202 194 189 182 175 170 172 176 184 199 212 229 245 258 273 283 291 299 304 310 315 314 312
136 210 230 216 232 247 257 143 158 158 272 229 211 236 245 179 281 299 165 196 200 190 181 174 167 165 169 173 175 188 202 212 226 238 254 270 280 287 295 302 310 314 314 311
174 195 214 222 240 263 270 135 150 189 255 190 201 223 204 208 239 270 161 183 185 179 172 167 165 170 174 171 178 195 205 214 221 233 254 268 278 288 296 301 306 310 311 314
180 180 197 190 213 252 162 154 195 229 326 206 214 220 217 230 236 207 196 185 180 177 173 171 172 174 172 174 184 199 209 209 209 229 253 266 276 286 291 299 305 309 313 315
205 200 195 196 215 272 172 205 229 279 259 241 229 229 223 235 234 218 206 194 188 184 178 177 177 175 176 182 191 203 203 195 201 225 249 265 276 283 288 298 305 310 316 318
217 210 206 231 253 249 224 239 250 246 249 259 252 243 223 231 234 216 204 196 191 188 183 180 181 183 186 189 197 205 193 187 199 223 245 263 275 285 294 299 301 309 316 319
206 180 211 239 257 287 260 237 243 249 252 257 256 247 238 235 233 214 204 199 193 189 186 184 188 192 191 188 196 199 194 190 202 219 239 257 268 281 293 300 304 307 308 316
194 190 203 243 224 222 250 222 222 236 248 248 248 250 237 226 229 212 207 200 193 189 186 188 193 194 191 189 193 194 193 193 199 211 227 244 265 281 294 305 308 302 307 322
Height
1584 1583 1586 1591 1593 1592 1591 1590 1589 1591 1600 1601 1594 1590 1590 1595 1598 1599 1600 1601 1601 1602 1604 1602 1601 1600 1599 1598 1596 1592 1588 1584 1580 1576 1572 1567 1562 1556 1550 1545 1539 1533 1527 1521
1583 1589 1595 1597 1596 1595 1593 1591 1588 1592 1601 1599 1590 1585 1582 1586 1591 1593 1594 1595 1596 1598 1599 1598 1597 1597 1597 1596 1593 1589 1585 1581 1577 1574 1569 1564 1558 1552 1547 1542 1536 1530 1524 1517
1583 1594 1597 1596 1595 1594 1592 1591 1591 1593 1597 1599 1595 1574 1578 1584 1588 1589 1589 1590 1591 1592 1593 1593 1594 1594 1594 1593 1590 1586 1583 1579 1575 1571 1567 1561 1556 1551 1546 1539 1532 1527 1521 1515
1590 1596 1596 1595 1595 1594 1590 1596 1596 1596 1593 1585 1594 1576 1567 1578 1582 1583 1583 1583 1584 1586 1588 1589 1590 1591 1591 1589 1586 1583 1580 1576 1573 1569 1564 1558 1553 1548 1542 1535 1529 1523 1518 1512
1591 1595 1594 1594 1596 1597 1594 1598 1596 1596 1593 1587 1589 1580 1563 1577 1572 1573 1576 1577 1579 1581 1583 1584 1585 1586 1587 1586 1583 1580 1577 1574 1570 1566 1561 1555 1550 1545 1539 1532 1526 1521 1515 1510
1594 1596 1596 1595 1597 1598 1597 1596 1596 1595 1589 1579 1584 1582 1566 1565 1567 1569 1573 1573 1574 1576 1578 1580 1581 1582 1583 1582 1580 1577 1574 1572 1568 1563 1558 1553 1548 1542 1535 1529 1523 1518 1513 1507
1591 1594 1596 1597 1594 1595 1594 1587 1580 1577 1575 1573 1590 1585 1568 1563 1567 1569 1570 1571 1571 1572 1574 1575 1576 1578 1579 1578 1576 1574 1572 1569 1565 1560 1555 1550 1545 1539 1533 1527 1521 1515 1510 1504
1584 1587 1593 1595 1594 1592 1593 1589 1589 1591 1582 1576 1585 1578 1560 1565 1567 1567 1567 1567 1567 1568 1569 1571 1573 1574 1575 1574 1573 1571 1569 1567 1562 1557 1553 1547 1542 1536 1530 1524 1518 1513 1508 1502
1580 1586 1596 1597 1597 1595 1591 1591 1595 1591 1592 1592 1571 1566 1560 1563 1563 1564 1564 1564 1563 1563 1565 1567 1568 1570 1571 1570 1569 1568 1566 1563 1559 1554 1550 1545 1540 1534 1527 1521 1516 1511 1505 1499
1584 1585 1593 1597 1598 1599 1596 1593 1594 1591 1591 1585 1569 1564 1559 1550 1551 1556 1558 1558 1558 1559 1560 1562 1564 1566 1566 1566 1565 1564 1563 1560 1556 1551 1547 1542 1537 1531 1525 1519 1514 1508 1502 1497
1589 1584 1591 1594 1592 1587 1595 1596 1592 1591 1590 1587 1577 1559 1549 1548 1549 1551 1552 1553 1552 1553 1554 1556 1559 1561 1562 1561 1561 1560 1559 1556 1552 1548 1544 1539 1534 1528 1523 1517 1511 1505 1500 1494
1590 1584 1579 1585 1592 1593 1589 1586 1587 1586 1585 1590 1585 1563 1545 1547 1548 1548 1548 1548 1547 1548 1549 1552 1554 1556 1557 1557 1557 1556 1555 1552 1549 1545 1541 1537 1532 1526 1520 1515 1509 1503 1498 1492
1591 1585 1577 1579 1589 1593 1589 1588 1588 1587 1586 1586 1583 1555 1542 1544 1545 1544 1543 1542 1542 1542 1544 1546 1549 1551 1552 1552 1553 1552 1551 1548 1545 1542 1538 1534 1529 1524 1518 1512 1506 1501 1496 1490
1590 1584 1575 1566 1564 1570 1579 1584 1587 1584 1580 1576 1571 1548 1535 1535 1536 1537 1537 1536 1536 1537 1538 1541 1544 1546 1547 1548 1548 1548 1546 1544 1541 1539 1535 1531 1527 1522 1516 1510 1504 1499 1493 1488
1590 1582 1576 1572 1574 1575 1572 1573 1580 1576 1566 1563 1548 1546 1534 1529 1530 1531 1531 1530 1530 1531 1532 1535 1538 1541 1542 1543 1543 1543 1542 1540 1538 1535 1532 1529 1524 1519 1514 1508 1502 1497 1491 1486
1587 1583 1580 1574 1574 1577 1574 1567 1568 1569 1565 1558 1552 1544 1528 1527 1527 1526 1525 1524 1523 1523 1525 1529 1532 1535 1537 1538 1538 1538 1537 1536 1534 1532 1529 1526 1522 1517 1512 1506 1500 1495 1489 1484
1583 1581 1577 1566 1571 1571 1557 1542 1554 1556 1549 1547 1543 1529 1521 1523 1522 1521 1519 1517 1516 1517 1519 1522 1526 1529 1531 1533 1533 1533 1533 1532 1530 1528 1526 1523 1519 1515 1510 1504 1498 1493 1487 1481
1579 1577 1573 1568 1565 1564 1527 1535 1537 1541 1536 1535 1528 1521 1519 1519 1517 1514 1512 1511 1510 1511 1513 1516 1520 1524 1526 1528 1528 1529 1528 1528 1527 1525 1523 1520 1517 1512 1507 1502 1496 1491 1485 1479
1578 1574 1571 1572 1561 1542 1527 1533 1535 1536 1527 1519 1521 1517 1514 1514 1513 1507 1505 1504 1504 1506 1509 1512 1515 1518 1521 1523 1524 1524 1524 1523 1523 1521 1519 1517 1514 1509 1505 1500 1494 1489 1483 1478
1579 1577 1574 1576 1565 1548 1518 1525 1527 1530 1524 1509 1512 1510 1510 1513 1511 1502 1501 1500 1500 1502 1504 1507 1510 1513 1515 1517 1519 1519 1519 1519 1519 1517 1516 1514 1510 1507 1502 1497 1492 1487 1482 1476
1575 1574 1572 1569 1562 1536 1519 1525 1529 1528 1512 1505 1504 1504 1505 1505 1502 1499 1496 1496 1497 1498 1500 1502 1505 1507 1510 1512 1513 1514 1515 1515 1515 1514 1512 1510 1507 1504 1500 1495 1490 1485 1480 1475
1551 1558 1560 1558 1557 1536 1521 1523 1519 1506 1502 1501 1500 1500 1499 1497 1495 1493 1491 1491 1491 1492 1494 1496 1499 1502 1504 1506 1508 1509 1510 1510 1510 1510 1509 1507 1504 1501 1497 1493 1488 1483 1478 1472
1536 1531 1531 1532 1521 1511 1509 1505 1502 1501 1499 1497 1496 1494 1493 1490 1487 1486 1485 1484 1485 1486 1488 1490 1493 1496 1498 1500 1502 1504 1505 1506 1506 1505 1505 1503 1501 1498 1494 1490 1486 1481 1476 1470
1526 1525 1525 1523 1509 1503 1502 1500 1498 1497 1494 1491 1489 1487 1484 1481 1479 1477 1477 1477 1477 1479 1481 1484 1487 1489 1492 1494 1497 1499 1500 1501 1501 1501 1500 1499 1497 1495 1492 1488 1484 1479 1473 1467
1508 1517 1516 1510 1500 1498 1492 1491 1489 1488 1487 1484 1481 1478 1475 1473 1470 1469 1468 1468 1469 1471 1473 1476 1479 1482 1486 1489 1491 1493 1494 1496 1496 1497 1496 1495 1494 1492 1489 1486 1482 1477 1472 1467
1502 1502 1502 1491 1488 1489 1482 1484 1484 1481 1477 1475 1472 1469 1466 1464 1462 1460 1459 1460 1461 1463 1465 1468 1471 1475 1479 1482 1485 1487 1488 1490 1491 1492 1492 1491 1490 1489 1487 1484 1481 1477 1472 1467